Regional Weather Roundup
Issued by NWS Charleston, WV

Home | Current Version | Previous Version | Text Only | Print | Product List | Glossary Off
Versions: 1 2 3 4 5 6 7 8 9 10 11 12 13 14 15 16 17 18 19 20 21 22 23 24 25 26 27

000
ASUS41 KRLX 240610
RWRRLX
West Virginia Regional Weather Roundup
National Weather Service Charleston WV
200 AM EDT MON JUL 24 2017

Note: "fair" indicates few or no clouds below 12,000 feet with no
significant weather and/or obstructions to visibility.

WVZ003-240700-
Northern Panhandle of West Virginia

CITY           SKY/WX    TMP DP  RH WIND       PRES   REMARKS
WHEELING       PTCLDY    66  64  93 CALM      29.83R
$$

WVZ009-240700-
Northwest West Virginia

CITY           SKY/WX    TMP DP  RH WIND       PRES   REMARKS
PARKERSBURG    CLEAR     67  66  97 S5        29.84F
$$

WVZ006-240700-
Western West Virginia

CITY           SKY/WX    TMP DP  RH WIND       PRES   REMARKS
HUNTINGTON     CLEAR     73  70  90 S5        29.84F
$$

WVZ015-240700-
West Central West Virginia

CITY           SKY/WX    TMP DP  RH WIND       PRES   REMARKS
CHARLESTON     CLOUDY    72  70  93 CALM      29.85S
$$

WVZ022-031-240700-
North Central West Virginia

CITY           SKY/WX    TMP DP  RH WIND       PRES   REMARKS
CLARKSBURG     CLOUDY    70  67  90 S3        29.82F
MORGANTOWN     LGT RAIN  68  64  87 NW3       29.82F
$$

WVZ025-035-042-045-240700-
Southern West Virginia

CITY           SKY/WX    TMP DP  RH WIND       PRES   REMARKS
BECKLEY        CLOUDY    69  65  86 SW8       29.96S
LOGAN          FOG       72  72 100 CALM      29.90F VSB 1/4
BLUEFIELD      MOCLDY    65  63  93 SW7       29.99F
LEWISBURG      CLOUDY    68  65  92 SW5       29.95F
$$

WVZ047-240700-
Northern Mountains of West Virginia

CITY           SKY/WX    TMP DP  RH WIND       PRES   REMARKS
ELKINS         RAIN      67  63  87 CALM      29.89S FOG
$$

WVZ052-240700-
Eastern Panhandle of West Virginia

CITY           SKY/WX    TMP DP  RH WIND       PRES   REMARKS
MARTINSBURG    PTCLDY    72  70  93 NW5       29.75S
PETERSBURG     CLOUDY    80  65  60 SW6       29.82R
$$




USA.gov is the U.S. government's official web portal to all federal, state and local government web resources and services.